FW7564 Weather Reports


time (UTC)temp
C
wind
direction
speed
KPH
gust
KPH
rain 1hr
cm
rain 24hr
cm
rain mn
cm
humidity
%
barometer
mb
20260509032413 8 180 3.2 17.7 0.00 0.00 0.00 10 1022.6
20260509031353 8 113 9.7 24.1 0.00 0.00 0.00 10 1022.6
20260509030843 8 180 9.7 20.9 0.00 0.00 0.00 10 1022.6
20260509025823 8 180 3.2 17.7 0.00 0.00 0.00 10 1022.0
20260509024802 9 113 3.2 12.9 0.00 0.00 0.00 10 1021.8
20260509024252 10 135 4.8 14.5 0.00 0.00 0.00 10 1021.6
20260509023232 10 315 3.2 11.3 0.00 0.00 0.00 10 1021.3
20260509022722 10 270 1.6 17.7 0.00 0.00 0.00 10 1021.3
20260509022212 10 315 6.4 17.7 0.00 0.00 0.00 10 1021.3
20260509021702 10 270 4.8 11.3 0.00 0.00 0.00 10 1021.2
20260509020641 10 315 6.4 22.5 0.00 0.00 0.00 10 1020.9
20260509020131 10 225 3.2 22.5 0.00 0.00 0.00 10 1021.2
20260509015622 10 248 6.4 22.5 0.00 0.00 0.00 10 1021.0
20260509015111 9 203 6.4 29.0 0.00 0.00 0.00 10 1020.7
20260509014604 9 203 14.5 49.9 0.00 0.00 0.00 10 1020.7
20260509014051 10 248 24.1 49.9 0.00 0.00 0.00 10 1020.3
20260509013541 9 180 12.9 33.8 0.00 0.00 0.00 10 1020.3
20260509012011 8 158 16.1 43.5 0.00 0.00 0.00 10 1019.6
20260509011457 8 180 22.5 43.5 0.00 0.00 0.00 10 1019.6
20260509010947 8 225 17.7 40.2 0.00 0.00 0.00 10 1019.4
20260509010437 8 135 22.5 40.2 0.00 0.00 0.00 10 1019.4
20260509005930 8 203 16.1 37.0 0.00 0.00 0.00 10 1019.0
20260509005419 8 203 17.7 57.9 0.00 0.00 0.00 10 1019.1
20260509004910 8 203 17.7 57.9 0.00 0.00 0.00 10 1019.1
20260509004400 8 180 12.9 48.3 0.00 0.00 0.00 10 1018.7
20260509003849 8 158 16.1 48.3 0.00 0.00 0.00 10 1018.5
20260509003339 8 270 11.3 37.0 0.00 0.00 0.00 10 1018.4
20260509002320 8 180 20.9 38.6 0.00 0.00 0.00 10 1018.5
20260509001809 8 203 19.3 49.9 0.00 0.00 0.00 10 1018.3
20260509001259 8 180 11.3 49.9 0.00 0.00 0.00 10 1018.0
20260509000749 9 180 24.1 43.5 0.00 0.00 0.00 10 1018.0
20260508235730 10 180 20.9 38.6 0.00 0.00 0.00 10 1017.5
20260508235218 11 203 9.7 38.6 0.00 0.00 0.00 10 1017.5
20260508234708 11 113 12.9 27.4 0.00 0.00 0.00 10 1017.2
20260508234159 11 203 6.4 12.9 0.00 0.00 0.00 10 1016.9
20260508233648 11 225 3.2 11.3 0.00 0.00 0.00 10 1016.7
20260508233138 12 248 3.2 11.3 0.00 0.00 0.00 10 1016.6
20260508232627 12 248 3.2 17.7 0.00 0.00 0.00 10 1016.3
20260508232118 12 203 3.2 17.7 0.00 0.00 0.00 10 1016.3
20260508231608 12 158 6.4 14.5 0.00 0.00 0.00 10 1016.2
20260508231058 12 203 8.0 14.5 0.00 0.00 0.00 10 1016.2
20260508230547 12 135 4.8 12.9 0.00 0.00 0.00 10 1015.9
20260508230037 12 180 3.2 12.9 0.00 0.00 0.00 10 1016.1
20260508225018 12 135 3.2 12.9 0.00 0.00 0.00 10 1015.4
20260508224507 12 113 6.4 17.7 0.00 0.00 0.00 10 1015.1
20260508223957 12 135 6.4 17.7 0.00 0.00 0.00 10 1014.9
20260508222937 13 90 3.2 17.7 0.00 0.00 0.00 10 1014.8
20260508222427 13 113 6.4 17.7 0.00 0.00 0.00 10 1014.5
20260508221917 13 113 4.8 14.5 0.00 0.00 0.00 10 1014.0
20260508220856 13 90 4.8 14.5 0.00 0.00 0.00 10 1013.9
20260508220346 13 90 6.4 17.7 0.00 0.00 0.00 10 1013.5
20260508215836 14 113 8.0 17.7 0.00 0.00 0.00 10 1013.6
20260508215329 14 68 6.4 12.9 0.00 0.00 0.00 10 1013.4
20260508214817 14 90 4.8 17.7 0.00 0.00 0.00 10 1013.2
20260508214306 14 90 6.4 17.7 0.00 0.00 0.00 10 1013.0
20260508213756 15 68 8.0 17.7 0.00 0.00 0.00 10 1013.0
20260508213246 15 68 8.0 14.5 0.00 0.00 0.00 10 1012.9
20260508212735 15 90 6.4 12.9 0.00 0.00 0.00 10 1013.0
20260508212225 15 68 4.8 12.9 0.00 0.00 0.00 10 1012.7
20260508211716 15 68 4.8 12.9 0.00 0.00 0.00 10 1012.8
20260508211206 15 90 4.8 12.9 0.00 0.00 0.00 10 1012.6
20260508210655 15 68 8.0 11.3 0.00 0.00 0.00 10 1012.7
20260508210146 16 68 6.4 9.7 0.00 0.00 0.00 10 1012.7
20260508205636 16 113 6.4 11.3 0.00 0.00 0.00 10 1012.5
20260508205124 16 68 4.8 11.3 0.00 0.00 0.00 10 1012.7
20260508204614 16 68 4.8 11.3 0.00 0.00 0.00 10 1012.8
20260508204105 16 68 4.8 9.7 0.00 0.00 0.00 10 1012.7
20260508203555 16 68 3.2 9.7 0.00 0.00 0.00 10 1012.8
20260508203045 16 68 3.2 9.7 0.00 0.00 0.00 10 1012.8
20260508202533 16 23 3.2 11.3 0.00 0.00 0.00 10 1012.5
20260508202024 16 68 4.8 11.3 0.00 0.00 0.00 10 1012.7
20260508201515 16 68 4.8 11.3 0.00 0.00 0.00 10 1012.7
20260508201003 16 90 3.2 11.3 0.00 0.00 0.00 10 1012.8
20260508200458 17 90 3.2 6.4 0.00 0.00 0.00 10 1012.9
20260508195943 17 113 0.0 6.4 0.00 0.00 0.00 10 1012.8
20260508195433 17 203 3.2 6.4 0.00 0.00 0.00 10 1012.8
20260508194923 17 180 1.6 6.4 0.00 0.00 0.00 10 1013.0
20260508193903 17 90 3.2 3.2 0.00 0.00 0.00 10 1012.8
20260508193352 17 135 3.2 3.2 0.00 0.00 0.00 10 1012.8
20260508192842 17 135 3.2 3.2 0.00 0.00 0.00 10 1012.9
20260508192333 17 113 1.6 6.4 0.00 0.00 0.00 10 1012.6
20260508191823 17 113 3.2 6.4 0.00 0.00 0.00 10 1013.0
20260508191312 17 135 3.2 6.4 0.00 0.00 0.00 10 1013.0
20260508190802 17 113 4.8 6.4 0.00 0.00 0.00 10 1013.0
20260508190252 17 113 3.2 6.4 0.00 0.00 0.00 10 1013.1
20260508185742 17 113 4.8 6.4 0.00 0.00 0.00 10 1013.0
20260508185232 17 113 4.8 6.4 0.00 0.00 0.00 10 1013.1
20260508184722 17 113 4.8 6.4 0.00 0.00 0.00 10 1013.2
20260508184212 17 90 3.2 9.7 0.00 0.00 0.00 10 1013.0
20260508183151 16 113 3.2 6.4 0.00 0.00 0.00 10 1013.2
20260508182131 16 113 3.2 6.4 0.00 0.00 0.00 10 1013.1
20260508181114 17 135 1.6 6.4 0.00 0.00 0.00 10 1013.2
20260508180601 17 203 0.0 9.7 0.00 0.00 0.00 10 1013.6
20260508180050 16 90 3.2 17.7 0.00 0.00 0.00 10 1013.5
20260508175541 16 23 6.4 17.7 0.00 0.00 0.00 10 1013.5
20260508175030 16 90 6.4 12.9 0.00 0.00 0.00 10 1013.9
20260508174521 17 90 4.8 11.3 0.00 0.00 0.00 10 1013.9
20260508174010 17 158 3.2 6.4 0.00 0.00 0.00 10 1014.0
20260508173501 16 113 3.2 6.4 0.00 0.00 0.00 10 1014.1
20260508172951 16 90 3.2 6.4 0.00 0.00 0.00 10 1014.0
20260508172440 17 68 3.2 6.4 0.00 0.00 0.00 10 1014.3
20260508171930 17 135 3.2 6.4 0.00 0.00 0.00 10 1014.5
20260508170910 17 203 3.2 6.4 0.00 0.00 0.00 10 1014.6
20260508170400 17 203 1.6 9.7 0.00 0.00 0.00 10 1014.7
20260508165849 17 180 3.2 11.3 0.00 0.00 0.00 10 1014.8
20260508165340 16 225 6.4 14.5 0.00 0.00 0.00 10 1015.0
20260508164830 16 158 6.4 14.5 0.00 0.00 0.00 10 1015.0
20260508164319 16 158 8.0 14.5 0.00 0.00 0.00 10 1015.1
20260508163259 16 203 8.0 14.5 0.00 0.00 0.00 10 1015.3
20260508162749 16 203 6.4 20.9 0.00 0.00 0.00 10 1015.2
20260508162238 16 113 4.8 20.9 0.00 0.00 0.00 10 1015.4
20260508161729 16 158 6.4 20.9 0.00 0.00 0.00 10 1015.4
20260508161218 16 180 8.0 20.9 0.00 0.00 0.00 10 1015.5
20260508160708 16 180 4.8 17.7 0.00 0.00 0.00 10 1015.7
20260508160158 15 180 8.0 17.7 0.00 0.00 0.00 10 1015.7
20260508155648 16 113 6.4 14.5 0.00 0.00 0.00 10 1016.1
20260508155138 15 203 4.8 22.5 0.00 0.00 0.00 10 1016.2
20260508154628 15 180 12.9 24.1 0.00 0.00 0.00 10 1016.1
20260508154119 15 225 11.3 27.4 0.00 0.00 0.00 10 1016.2
20260508153608 15 180 17.7 27.4 0.00 0.00 0.00 10 1016.3
20260508153058 15 180 8.0 24.1 0.00 0.00 0.00 10 1016.4
20260508152548 14 203 12.9 27.4 0.00 0.00 0.00 10 1016.4
20260508152038 14 158 14.5 27.4 0.00 0.00 0.00 10 1016.3
20260508151527 14 158 12.9 27.4 0.00 0.00 0.00 10 1016.6
20260508151017 15 203 9.7 27.4 0.00 0.00 0.00 10 1016.5
20260508145957 14 225 11.3 29.0 0.00 0.00 0.00 10 1016.7
20260508145446 14 203 12.9 32.2 0.00 0.00 0.00 10 1016.6
20260508144937 14 158 11.3 32.2 0.00 0.00 0.00 10 1016.8
20260508144427 14 203 6.4 22.5 0.00 0.00 0.00 10 1016.7
20260508143406 14 135 12.9 25.7 0.00 0.00 0.00 10 1016.9
20260508141326 14 203 12.9 25.7 0.00 0.00 0.00 10 1017.0
20260508140816 13 203 6.4 25.7 0.00 0.00 0.00 10 1017.0
20260508140306 14 203 11.3 24.1 0.00 0.00 0.00 10 1017.1
20260508135756 14 225 8.0 27.4 0.00 0.00 0.00 10 1017.0
20260508134735 13 158 11.3 25.7 0.00 0.00 0.00 10 1017.1
20260508134225 13 180 8.0 25.7 0.00 0.00 0.00 10 1017.1
20260508133716 13 225 6.4 25.7 0.00 0.00 0.00 10 1017.4
20260508133205 13 158 8.0 25.7 0.00 0.00 0.00 10 1017.0
20260508131634 12 158 6.4 17.7 0.00 0.00 0.00 10 1017.1
20260508131125 12 90 6.4 12.9 0.00 0.00 0.00 10 1017.1
20260508130615 12 180 4.8 14.5 0.00 0.00 0.00 10 1017.2
20260508130104 12 113 4.8 14.5 0.00 0.00 0.00 10 1016.9
20260508125554 12 135 3.2 14.5 0.00 0.00 0.00 10 1017.1
20260508125045 11 180 3.2 14.5 0.00 0.00 0.00 10 1017.0
20260508124533 11 135 6.4 12.9 0.00 0.00 0.00 10 1017.1
20260508124024 11 203 3.2 12.9 0.00 0.00 0.00 10 1017.2
20260508123004 11 180 4.8 11.3 0.00 0.00 0.00 10 1017.6
20260508122454 11 158 3.2 11.3 0.00 0.00 0.00 10 1017.4
20260508121943 11 135 3.2 11.3 0.00 0.00 0.00 10 1017.4
20260508121435 10 158 3.2 11.3 0.00 0.00 0.00 10 1017.5
20260508120413 10 180 3.2 11.3 0.00 0.00 0.00 10 1017.6
20260508115903 10 135 1.6 11.3 0.00 0.00 0.00 10 1017.3
20260508115353 10 203 3.2 11.3 0.00 0.00 0.00 10 1017.2
20260508114843 9 180 3.2 12.9 0.00 0.00 0.00 10 1017.5
20260508113822 9 203 6.4 12.9 0.00 0.00 0.00 10 1017.2
20260508113313 9 203 8.0 12.9 0.00 0.00 0.00 10 1017.2
20260508112802 9 113 1.6 9.7 0.00 0.00 0.00 10 1017.1
20260508111742 8 203 3.2 6.4 0.00 0.00 0.00 10 1016.9
20260508111232 8 225 3.2 6.4 0.00 0.00 0.00 10 1016.8
20260508110722 8 180 1.6 12.9 0.00 0.00 0.00 10 1017.1
20260508105702 8 135 6.4 12.9 0.00 0.00 0.00 10 1016.9
20260508105151 8 180 6.4 17.7 0.00 0.00 0.00 10 1016.7
20260508104644 8 203 3.2 17.7 0.00 0.00 0.00 10 1017.0
20260508104131 8 203 6.4 17.7 0.00 0.00 0.00 10 1016.8
20260508103622 8 158 6.4 24.1 0.00 0.00 0.00 10 1017.0
20260508103111 8 248 9.7 24.1 0.00 0.00 0.00 10 1016.6
20260508102601 8 180 8.0 22.5 0.00 0.00 0.00 10 1016.6
20260508102051 8 203 6.4 20.9 0.00 0.00 0.00 10 1016.5
20260508101541 8 180 6.4 17.7 0.00 0.00 0.00 10 1016.7
20260508101031 8 203 4.8 17.7 0.00 0.00 0.00 10 1016.4
20260508100520 8 203 4.8 22.5 0.00 0.00 0.00 10 1016.4
20260508100010 8 203 6.4 24.1 0.00 0.00 0.00 10 1016.3
20260508095500 8 225 8.0 24.1 0.00 0.00 0.00 10 1016.2
20260508094950 8 248 8.0 25.7 0.00 0.00 0.00 10 1016.3
20260508094437 8 180 12.9 25.7 0.00 0.00 0.00 10 1016.1
20260508093930 8 158 11.3 24.1 0.00 0.00 0.00 10 1016.1
20260508093420 8 248 9.7 22.5 0.00 0.00 0.00 10 1016.3
20260508092910 8 225 8.0 17.7 0.00 0.00 0.00 10 1016.4
20260508092401 8 180 8.0 17.7 0.00 0.00 0.00 10 1016.2
20260508091849 8 203 6.4 17.7 0.00 0.00 0.00 10 1016.2
20260508091339 8 225 8.0 20.9 0.00 0.00 0.00 10 1016.3
20260508090829 8 180 6.4 22.5 0.00 0.00 0.00 10 1016.2
20260508090319 8 203 3.2 22.5 0.00 0.00 0.00 10 1016.5
20260508085809 8 225 11.3 20.9 0.00 0.00 0.00 10 1016.4
20260508083729 8 158 6.4 14.5 0.00 0.00 0.00 10 1016.5
20260508083219 8 203 3.2 17.7 0.00 0.00 0.00 10 1016.0
20260508082708 8 180 9.7 17.7 0.00 0.00 0.00 10 1016.4
20260508081648 9 203 4.8 24.1 0.00 0.00 0.00 10 1016.3
20260508081137 9 113 6.4 24.1 0.00 0.00 0.00 10 1016.1
20260508080627 9 203 3.2 24.1 0.00 0.00 0.00 10 1016.3
20260508080118 9 203 12.9 24.1 0.00 0.00 0.00 10 1016.1
20260508075608 9 225 14.5 35.4 0.00 0.00 0.00 10 1016.3
20260508075058 9 225 9.7 35.4 0.00 0.00 0.00 10 1016.2
20260508074548 9 248 12.9 25.7 0.00 0.00 0.00 10 1016.4
20260508073523 9 158 6.4 27.4 0.00 0.00 0.00 10 1016.3
20260508073014 9 225 4.8 22.5 0.00 0.00 0.00 10 1016.4
20260508071956 9 225 6.4 27.4 0.00 0.00 0.00 10 1016.6
20260508070425 9 225 6.4 0.0 0.00 0.00 0.00 10 1016.4
20260508070224 9 270 9.7 0.0 0.00 0.00 0.00 10 1016.5
20260508065535 10 180 6.4 22.5 0.00 0.00 0.00 10 1016.4
20260508065025 10 203 6.4 25.7 0.00 0.00 0.00 10 1016.6
20260508064516 10 225 6.4 27.4 0.00 0.00 0.00 10 1016.5
20260508064005 10 203 16.1 33.8 0.00 0.00 0.00 10 1016.5
20260508062945 10 203 8.0 22.5 0.00 0.00 0.00 10 1016.8
20260508062435 10 225 3.2 24.1 0.00 0.00 0.00 10 1016.7
20260508061925 10 248 6.4 24.1 0.00 0.00 0.00 10 1016.5
20260508061415 10 203 8.0 22.5 0.00 0.00 0.00 10 1016.7
20260508060904 10 180 6.4 29.0 0.00 0.00 0.00 10 1017.0
20260508060354 10 180 4.8 29.0 0.00 0.00 0.00 10 1016.9
20260508055844 10 203 8.0 25.7 0.00 0.00 0.00 10 1016.9
20260508055335 10 225 6.4 25.7 0.00 0.00 0.00 10 1016.8
20260508054824 10 203 12.9 27.4 0.00 0.00 0.00 10 1016.3
20260508054314 10 158 12.9 27.4 0.00 0.00 0.00 10 1016.5
20260508053804 10 203 12.9 24.1 0.00 0.00 0.00 10 1016.8
20260508053254 10 203 11.3 32.2 0.00 0.00 0.00 10 1016.8
20260508052744 10 158 9.7 32.2 0.00 0.00 0.00 10 1016.6
20260508052230 10 158 6.4 17.7 0.00 0.00 0.00 10 1016.9
20260508051724 10 158 9.7 17.7 0.00 0.00 0.00 10 1016.8
20260508051210 10 248 11.3 17.7 0.00 0.00 0.00 10 1016.9
20260508050700 10 158 3.2 17.7 0.00 0.00 0.00 10 1017.2
20260508050150 10 293 6.4 17.7 0.00 0.00 0.00 10 1016.9
20260508045640 10 270 9.7 17.7 0.00 0.00 0.00 10 1017.0
20260508044620 10 203 4.8 17.7 0.00 0.00 0.00 10 1017.1
20260508044110 10 180 6.4 20.9 0.00 0.00 0.00 10 1016.8
20260508043559 10 158 6.4 25.7 0.00 0.00 0.00 10 1016.6
20260508043049 10 158 8.0 25.7 0.00 0.00 0.00 10 1016.6
20260508042539 11 135 8.0 17.7 0.00 0.00 0.00 10 1016.6
20260508041532 11 180 9.7 24.1 0.00 0.00 0.00 10 1016.6
20260508041012 11 135 6.4 25.7 0.00 0.00 0.00 10 1016.6
20260508040502 11 203 8.0 25.7 0.00 0.00 0.00 10 1016.4
20260508035951 11 203 12.9 25.7 0.00 0.00 0.00 10 1016.5
20260508035442 11 135 11.3 22.5 0.00 0.00 0.00 10 1016.5
20260508034932 11 158 12.9 20.9 0.00 0.00 0.00 10 1016.4
20260508034421 11 180 6.4 24.1 0.00 0.00 0.00 10 1016.1
20260508033911 11 180 9.7 24.1 0.00 0.00 0.00 10 1016.2
20260508033401 10 158 12.9 17.7 0.00 0.00 0.00 10 1016.3